User: anonymous   Login
Location: Dalton
(34.7700°N, 84.9700°W)
Time: 11:35:30
(UTC-04:00)
Language:

Envisat - Orbit

View from above orbital plane
View from above orbital plane
View from above satellite
View from above satellite

Ground track
Ground track

The orbit data is extracted from the following two-line orbital elements,

1 27386U 02009A   18174.14600944 -.00000011  00000-0  98859-5 0  9993
2 27386  98.1835 207.9263 0001249  94.6986 299.9006 14.37924392854386
Epoch (UTC): 23 June 2018 03:30:15
Eccentricity: 0.0001249
inclination: 98.1835°
perigee height: 764 km
apogee height: 766 km
right ascension of ascending node: 207.9263°
argument of perigee: 94.6986°
revolutions per day: 14.37924392
mean anomaly at epoch: 299.9006°
orbit number at epoch: 85438

The dashed part of the orbit path shows where the satellite is in the earth's shadow,  

DLR